• MPC Preparation (Info)

  • MPEC 2014-F53 : 2014 FJ33

    The following Minor Planet Electronic Circular may be linked-to from your own Web pages, but must not otherwise be redistributed electronically.

    A form allowing access to any MPEC is at the bottom of this page.


    Read MPEC 2014-F52 Read MPEC 2014-F54


    M.P.E.C. 2014-F53                                Issued 2014 Mar. 28, 11:34 UT
    
         The Minor Planet Electronic Circulars contain information on unusual
             minor planets and routine data on comets.  They are published
       on behalf of Commission 20 of the International Astronomical Union by the
              Minor Planet Center, Smithsonian Astrophysical Observatory,
                              Cambridge, MA 02138, U.S.A.
    
                 Prepared using the Tamkin Foundation Computer Network
    
                                  MPC@CFA.HARVARD.EDU
                URL https://www.minorplanetcenter.net/    ISSN 1523-6714
    
                                       2014 FJ33
    
    Observations:
         K14F33J  C2014 03 06.30359 10 57 40.603+11 21 01.43         20.3 iLEF053F51
         K14F33J  C2014 03 06.32739 10 57 38.685+11 21 04.91         20.2 iLEF053F51
         K14F33J  C2014 03 06.33929 10 57 37.722+11 21 06.78         20.3 iLEF053F51
         K14F33J  C2014 03 20.47171 10 38 59.098+11 43 59.61         21.2 rLEF053F51
         K14F33J  C2014 03 20.48294 10 38 58.205+11 44 00.12         20.9 rLEF053F51
         K14F33J  C2014 03 20.49460 10 38 57.290+11 44 00.51         21.2 rLEF053F51
         K14F33J* C2014 03 25.20661 10 33 08.49 +11 45 15.0          21.2 VqEF053G96
         K14F33J  C2014 03 25.21118 10 33 08.13 +11 45 14.9          20.5 VqEF053G96
         K14F33J  C2014 03 25.21580 10 33 07.79 +11 45 15.3          21.0 VqEF053G96
         K14F33J  C2014 03 25.22038 10 33 07.41 +11 45 15.4          20.7 VqEF053G96
         K14F33J  C2014 03 25.25180 10 33 05.17 +11 45 14.4          20.6 VqEF053G96
         K14F33J  C2014 03 25.25651 10 33 04.80 +11 45 14.7          21.0 VqEF053G96
         K14F33J  C2014 03 25.26123 10 33 04.39 +11 45 14.9          20.7 VqEF053G96
         K14F33J  C2014 03 25.26593 10 33 04.13 +11 45 15.2          20.4 VqEF053G96
         K14F33J KC2014 03 25.29514 10 33 01.94 +11 45 14.5          20.5 RoEF053291
         K14F33J KC2014 03 25.29880 10 33 01.67 +11 45 14.4          20.6 RoEF053291
         K14F33J KC2014 03 25.30248 10 33 01.40 +11 45 14.5          20.6 RoEF053291
         K14F33J KC2014 03 25.34732210 32 58.05 +11 45 13.5          21.3 VqEF053V37
         K14F33J KC2014 03 25.35873010 32 57.23 +11 45 13.3          21.0 VqEF053V37
         K14F33J KC2014 03 25.36768310 32 56.57 +11 45 13.2          21.1 VqEF053V37
         K14F33J  C2014 03 26.13939 10 32 02.56 +11 45 02.4          21.5 VqEF053G96
         K14F33J  C2014 03 26.14061 10 32 02.44 +11 45 02.7          21.1 VqEF053G96
         K14F33J  C2014 03 26.14184 10 32 02.39 +11 45 02.5          21.0 VqEF053G96
         K14F33J  C2014 03 26.14306 10 32 02.28 +11 45 02.3          20.9 VqEF053G96
         K14F33J KC2014 03 26.18524710 31 59.07 +11 45 01.3          20.7 VrEF053H21
         K14F33J KC2014 03 26.19702110 31 58.23 +11 45 01.2          20.6 VrEF053H21
         K14F33J KC2014 03 26.20876510 31 57.45 +11 45 00.8          20.9 VrEF053H21
         K14F33J  C2014 03 26.22796 10 31 56.12 +11 45 01.3          20.7 RoEF053926
         K14F33J  C2014 03 26.24764 10 31 54.69 +11 45 01.1          20.9 RoEF053926
         K14F33J  C2014 03 26.26252 10 31 53.60 +11 45 01.1          21.0 RoEF053926
         K14F33J KC2014 03 28.17766 10 29 42.20 +11 44 03.6          21.0 RoEF053291
         K14F33J KC2014 03 28.18251 10 29 41.86 +11 44 03.2          20.5 RoEF053291
         K14F33J KC2014 03 28.18736 10 29 41.53 +11 44 03.1          20.2 RoEF053291
    
    Observer details:
    291 LPL/Spacewatch II.  Observers J. V. Scotti, R. A. Mastaler.  1.8-m f/2.7
        reflector + CCD.
    926 Tenagra II Observatory.  Observers M. Schwartz, P. R. Holvorcem.  0.81-m
        f/7 Ritchey-Chretien + CCD.
    F51 Pan-STARRS 1, Haleakala.  Observers N. Primak, A. Schultz, T. Goggia,
        M. Willman.  Measurer P. Veres.  1.8-m Ritchey-Chretien + CCD.
    G96 Mt. Lemmon Survey.  Observers R. E. Hill, A. R. Gibbs.  Measurers
        E. J. Christensen, A. R. Gibbs, A. D. Grauer, R. E. Hill, J. A. Johnson,
        R. A. Kowalski, S. M. Larson, F. C. Shelly.  1.5-m reflector + CCD.
    H21 Astronomical Research Observatory, Westfield.  Observer R. Holmes.
        Measurers S. Foglia, L. Buzzi, H. Devore, T. Linder, T. Lister,
        T. Vorobjov.  0.61-m f/4.0 astrograph + CCD.
    V37 McDonald Observatory-LCOGT ELP.  Observers E. J. Christensen, S. M. Larson,
        T. Lister.  Measurer T. Lister.  1.0-m f/8 Ritchey-Chretien + CCD.
    
    Orbital elements:
    2014 FJ33
    Epoch 2014 May 23.0 TT = JDT 2456800.5                  MPC
    M 332.64585              (2000.0)            P               Q
    n   0.22343764     Peri.  271.00628     -0.06327433     +0.99786085
    a   2.6896669      Node   355.27097     -0.81791806     -0.06128569
    e   0.5029289      Incl.   11.49830     -0.57184475     -0.02275496
    P   4.41           H   18.1           G   0.15           U   5
    Residuals in seconds of arc
    140306 F51  0.0   0.0     140325 G96  0.1+  0.1-    140326 G96  0.3+  0.2-
    140306 F51  0.0   0.1-    140325 G96  0.8-  0.2+    140326 G96  0.0   0.4-
    140306 F51  0.0   0.1+    140325 G96  0.5+  0.5+    140326 H21  0.1+  0.0
    140320 F51  0.1+  0.1-    140325 291  0.1-  0.1+    140326 H21  0.3+  0.1+
    140320 F51  0.1-  0.1+    140325 291  0.1-  0.0     140326 H21  1.4+  0.1-
    140320 F51  0.0   0.1+    140325 291  0.0   0.2+    140326 926  0.0   0.1-
    140325 G96  0.1+  0.2-    140325 V37  0.1-  0.3-    140326 926  0.0   0.0
    140325 G96  0.3-  0.2-    140325 V37  0.1+  0.3-    140326 926  0.1-  0.3+
    140325 G96  0.2-  0.2+    140325 V37  0.0   0.3-    140328 291  0.1-  0.2+
    140325 G96  0.8-  0.3+    140326 G96  0.2+  0.3-    140328 291  0.2-  0.0
    140325 G96  0.4+  0.4-    140326 G96  0.3-  0.0     140328 291  0.0   0.0
    
    Ephemeris:
    2014 FJ33                a,e,i = 2.69, 0.50, 11                  q = 1.3370
    Date    TT    R. A. (2000) Decl.     Delta      r     Elong.  Phase     V
    2014 02 26    11 08 04.9 +10 59 25   1.3399  2.3239   171.7     3.5    20.9
    ...
    2014 03 13    10 48 47.1 +11 34 57   1.2565  2.2350   166.5     5.9    20.8
    ...
    2014 03 21    10 38 19.1 +11 44 21   1.2373  2.1870   156.5    10.5    20.9
    ...
    2014 03 27    10 31 02.4 +11 44 46   1.2334  2.1507   149.0    13.8    21.0
    2014 03 28    10 29 54.1 +11 44 13   1.2336  2.1447   147.7    14.4    21.0
    2014 03 29    10 28 47.3 +11 43 29   1.2340  2.1386   146.5    14.9    21.0
    ...
    2014 04 04    10 22 42.2 +11 35 07   1.2406  2.1022   139.3    18.1    21.1
    ...
    2014 04 12    10 16 26.9 +11 13 15   1.2592  2.0535   130.1    21.9    21.2
    ...
    2014 04 27    10 11 13.8 +10 00 43   1.3153  1.9620   114.7    27.8    21.4
    
    A. U. Tomatic                (C) Copyright 2014 MPC           M.P.E.C. 2014-F53
    

    Read MPEC 2014-F52 Read MPEC 2014-F54


    MPEC number:

    Enter an MPEC number in one of the following forms:

    • 1997-B01 (the full form)
    • J97B01 (the packed version of the full form)
    • B01 (the abbreviated form)